Regional Weather Roundup
Issued by NWS Upton, NY

Current Version | Previous Version | Graphics & Text | Print | Product List | Glossary Off
Versions: 1 2 3 4 5 6 7 8 9 10 11 12 13 14 15 16 17 18 19 20 21 22 23 24 25 26 27

000
ASUS41 KOKX 051204
RWROKX

REGIONAL WEATHER ROUNDUP
NATIONAL WEATHER SERVICE NEW YORK NY
800 AM EDT THU MAY 05 2016

NOTE: "FAIR" INDICATES FEW OR NO CLOUDS BELOW 12,000 FEET WITH NO
SIGNIFICANT WEATHER AND/OR OBSTRUCTIONS TO VISIBILITY.

NYZ071-072-176-178-NJZ106-104-051300-
NEW YORK CITY METRO AREA


CITY           SKY/WX    TMP DP  RH WIND       PRES   REMARKS
CENTRAL PARK   CLOUDY    48  41  76 NE12      29.73R
LAGUARDIA APRT CLOUDY    49  44  83 NE12      29.70S
KENNEDY INTL   CLOUDY    48  42  80 N13       29.71R
NEWARK/LIBERTY CLOUDY    48  45  89 N15       29.71R
BRNX BOT. GARD   N/A     46  41  81 NW1       29.70F
TETERBORO      CLOUDY    48  42  80 NE5       29.70S
$$

NYZ177-179-078>081-051300-
LONG ISLAND NEW YORK

CITY           SKY/WX    TMP DP  RH WIND       PRES   REMARKS
FARMINGDALE    CLOUDY    47  41  80 NE13      29.69F
ISLIP          CLOUDY    46  41  82 N14       29.69S
SHIRLEY        CLOUDY    47  41  80 N9G20     29.70R
RIVERHEAD        N/A     46  43  87 E7        29.70S
WESTHAMPTON    CLOUDY    42  42 100 NE15G25   29.70S
EAST HAMPTON   CLOUDY    46  41  85 NE10G20   29.69S
MONTAUK POINT    N/A     47  42  83 NE15G22   29.71R
$$

NYZ052-065-067-051300-
HUDSON VALLEY

CITY           SKY/WX    TMP DP  RH WIND       PRES   REMARKS
WHITE PLAINS   CLOUDY    47  41  80 N12       29.70R
NEWBURGH       CLOUDY    46  45  93 NE6       29.75R
MONTGOMERY     CLOUDY    48  43  82 NE12      29.73R
POUGHKEEPSIE   CLOUDY    50  43  77 N8        29.74R
ALBANY         CLOUDY    49  43  80 N6        29.78R
$$

NJZ001-105-106-008-010-013-015-019>022-104-051300-
NEW JERSEY

CITY           SKY/WX    TMP DP  RH WIND       PRES   REMARKS
NEWARK/LIBERTY CLOUDY    48  45  89 N15       29.71R
TETERBORO      CLOUDY    48  42  80 NE5       29.70S
CALDWELL       CLOUDY    48  31  51 VRB6G17   29.71S
MORRISTOWN     CLOUDY    46  45  93 NE7       29.72R
SOMERVILLE     CLOUDY    48  44  86 NE7       29.69S FOG
SUSSEX         CLOUDY    46  42  86 NE8       29.73R FOG
ANDOVER          N/A     46  43  89 VRB6      29.72R
TRENTON        CLOUDY    48  44  86 NE8       29.69R
MILLVILLE      CLOUDY    48  44  86 NE12      29.67S
ATLANTIC CITY  CLOUDY    47  45  93 NE12G20   29.66S
WRIGHTSTOWN    CLOUDY    47  45  93 N13       29.66S
TOMS RIVER     CLOUDY    46  43  87 NE13      29.69R
BELMAR         CLOUDY    46  43  89 N12G17    29.70R
$$

PAZ047>061-062-071-051300-
EASTERN PENNSYLVANIA

CITY           SKY/WX    TMP DP  RH WIND       PRES   REMARKS
PHILADELPHIA   CLOUDY    50  43  77 NE12      29.69S
ALLENTOWN      CLOUDY    49  42  77 NE10      29.71R
SCRANTON       CLOUDY    47  42  83 NE7       29.72R
$$

CTZ002-004>006-009-010-012-RIZ004-006-007-MAZ004-011-015-051300-
SOUTHERN NEW ENGLAND
 IN CT

CITY           SKY/WX    TMP DP  RH WIND       PRES   REMARKS
BRADLEY INTL   CLOUDY    46  40  79 N14       29.75R
HARTFORD       CLOUDY    48  41  76 N13       29.74R
DANBURY        CLOUDY    46  40  79 NE6       29.74R
WTRBRY/OXFORD  CLOUDY    45  37  76 NE9G17    29.72R
BRIDGEPORT     CLOUDY    48  40  73 N14       29.71S
MERIDEN        CLOUDY    47  39  74 N13G21    29.72R
NEW HAVEN      CLOUDY    46  41  82 N14G22    29.70S
CHESTER        CLOUDY    45  41  87 NE12G22   29.70S
GROTON         CLOUDY    47  46  97 NE16G25   29.70R
WILLIMANTIC    CLOUDY    46  40  79 NE13G20   29.73R

 IN RI

CITY           SKY/WX    TMP DP  RH WIND       PRES   REMARKS
PROVIDENCE     CLOUDY    46  42  86 NE18G26   29.74R
BLOCK ISLAND   CLOUDY    46  43  89 NE15G26   29.70R
WESTERLY       CLOUDY    47  40  76 N10G22    29.71R

 IN MA

CITY           SKY/WX    TMP DP  RH WIND       PRES   REMARKS
BOSTON         CLOUDY    45  43  93 NE18      29.77R
WORCESTER      CLOUDY    40  39  97 NE10      29.75R FOG     WCI  33
WESTFIELD      CLOUDY    45  40  82 NE9G18    29.76R
PROVINCETOWN   CLOUDY    45  44  97 NE18G28   29.73R
NANTUCKET      CLOUDY    45  44  97 N24G30    29.66R
$$

ANZ330-335-338-340-345-350-353-355-051300-
COASTAL MARINE OBSERVATIONS


STATION/POSITION TIME  SKY/WX   TEMP    WIND        PRES    VSBY  WAVE
                                AIR SEA DIR/SP/G                  HT/PER
                 (UTC)          (F)     (DEG/KT/KT) (MB)    (MI)  (FT/S)
NY HARB ENTRANCE 1050            47 50   30/ 17/ 21 1004.6          5/ 8
20S FIRE ISLAND  1050            47 48   40/ 17/ 23 1004.1          6/ 7
GREAT SOUTH BAY  1130            47 53   20/ 14/ 17   N/A
23 SSW MONTAUK P 1150            46 46   30/ 25/ 27 1003.7          7/ 6
15 E BARNEGAT LI 1122               50                N/A           7/ 7
HUDSON CANYON    1050            47 48              1002.2          8/ 7
KINGS POINT      1100            46 53              1005.5
EXECUTION ROCKS  NOT AVBL
CENTRAL LI SOUND NOT AVBL
EASTERN LI SOUND 1100            47 47   30/ 16/ 19   N/A
ROBBINS REEF     1100            47     360/ 12/ 14 1005.2
$$


>>>>>>>>>>>>>>>>>>>>>>>>>>>> KEY <<<<<<<<<<<<<<<<<<<<<<<<<<<
>                                                          <
>     SKY/WX - SKY CONDITION/PRESENT WEATHER               <
>     TMP    - TEMPERATURE IN FAHRENHEIT                   <
>     DP     - DEWPOINT IN FAHRENHEIT                      <
>     RH     - RELATIVE HUMIDITY IN PERCENT                <
>     WIND   - DIRECTION AND SPEED IN MPH                  <
>     PRES   - MEAN SEA LEVEL PRESSURE IN INCHES OF HG     <
>     WCI    - WIND CHILL INDEX                            <
>     VSB    - VISIBILITY IN MILES                         <
>     HX     - HEAT INDEX                                  <
>     TC     - TEMPERATURE IN CELSIUS                      <
>     VRB    - VARIABLE WIND DIRECTION                     <
>                                                          <
>>>>>>>>>>>>>>>>>>>>>>>>>>>> KEY <<<<<<<<<<<<<<<<<<<<<<<<<<<






USA.gov is the U.S. government's official web portal to all federal, state and local government web resources and services.